Location: Wavehorne
(51.0500°N, 0.8333°E)
Time: 17:48:17
(UTC+00:00)

NOSS 2-2 (C) - Pass Details

Date: 25 October 2021
Orbit: 450 x 1755 km, 63.3° (Epoch: 01 December)

Event Time Altitude Azimuth Distance (km) Brightness Sun altitude
Exits shadow 03:07:21 38° 135° (SE) 1,423 5.4 -33.0°
Drops below altitude 10° 03:11:46 10° 137° (SE) 3,013 7.2 -32.4°
Sets 03:14:58 0° 138° (SE) 4,190 8.0 -31.9°
